Probability
0 0 0 0 0 0 0 0 0 0 0 0 0 0 0 0 0 0 0 0 0 0 0 1 3 4 5 8 9 10 15 18 19 25 38 49 52 50 41 29 20 13 8 5
0 0 0 0 0 0 0 0 0 0 0 0 0 0 0 0 0 0 0 0 0 0 0 1 3 4 6 8 10 10 14 17 18 23 35 48 53 51 43 33 22 14 10 7
0 0 0 0 0 0 0 0 0 0 0 0 0 0 0 0 0 0 0 0 0 0 0 1 2 3 5 6 8 9 11 14 17 21 31 44 51 50 45 37 26 17 11 9
0 0 0 0 0 0 0 0 0 0 0 0 0 0 0 0 0 0 0 0 0 0 0 1 2 2 3 3 4 5 7 9 13 18 27 38 44 44 41 35 28 19 13 11
0 0 0 0 0 0 0 0 0 0 0 0 0 0 0 0 0 0 0 0 0 0 0 1 1 1 1 1 1 2 3 5 8 12 18 27 34 35 32 28 24 19 14 12
0 0 0 0 0 0 0 0 0 0 0 0 0 0 0 0 0 0 0 0 0 0 0 0 0 0 0 0 0 1 1 2 3 6 9 15 22 26 25 22 19 18 16 13
0 0 0 0 0 0 0 0 0 0 0 0 0 0 0 0 0 0 0 0 0 0 0 0 0 0 0 0 0 0 0 0 1 2 4 9 14 19 20 18 16 15 15 14
0 0 0 0 0 0 0 0 0 0 0 0 0 0 0 0 0 0 0 0 0 0 0 0 0 0 0 0 0 0 0 0 0 1 3 7 10 13 13 11 10 11 11 11
0 0 0 0 0 0 0 0 0 0 0 0 0 0 0 0 0 0 0 0 0 0 0 0 0 0 0 0 0 0 0 0 0 1 2 4 6 6 5 4 4 4 5 5
0 0 0 0 0 0 0 0 0 0 0 0 0 0 0 0 0 0 0 0 0 0 0 0 0 0 0 0 0 0 0 0 0 0 1 1 1 1 1 0 1 1 1 2
0 0 0 0 0 0 0 0 0 0 0 0 0 0 0 0 0 0 0 0 0 0 0 0 0 0 0 0 0 0 0 0 0 0 0 0 0 0 0 0 0 0 0 1
0 0 0 0 0 0 0 0 0 0 0 0 0 0 0 0 0 0 0 0 0 0 0 0 0 0 0 0 0 0 0 0 0 0 0 0 0 0 0 0 0 0 0 1
0 0 0 0 0 0 0 0 0 0 0 0 0 0 0 0 0 0 0 0 0 0 0 0 0 0 0 0 0 0 0 0 0 0 0 0 0 0 0 0 0 0 0 0
0 0 0 0 0 0 0 0 0 0 0 0 0 0 0 0 0 0 0 0 0 0 0 0 0 0 0 0 0 0 0 0 0 0 0 0 0 0 0 0 0 0 0 0
0 0 0 0 0 0 0 0 0 0 0 0 0 0 0 0 0 0 0 0 0 0 0 0 0 0 0 0 0 0 0 0 0 0 0 0 0 0 0 0 0 0 0 0
0 0 0 0 0 0 0 0 0 0 0 0 0 0 0 0 0 0 0 0 0 0 0 0 0 0 0 0 0 0 0 0 0 0 0 0 0 0 0 0 0 0 0 0
0 0 0 0 0 0 0 0 0 0 0 0 0 0 0 0 0 0 0 0 0 0 0 0 0 0 0 0 0 0 0 0 0 0 0 0 0 0 0 0 0 0 0 0
0 0 0 0 0 0 0 0 0 0 0 0 0 0 0 0 0 0 0 0 0 0 0 0 0 0 0 0 0 0 0 0 0 0 0 0 0 0 0 0 0 0 0 0
0 0 0 0 0 0 0 0 0 0 0 0 0 0 0 0 0 0 0 0 0 0 0 0 0 0 0 0 0 0 0 0 0 0 0 0 0 0 0 0 0 0 0 0
0 0 0 0 0 0 0 0 0 0 0 0 0 0 0 0 0 0 0 0 0 0 0 0 0 0 0 0 0 0 0 0 0 0 0 0 0 0 0 0 0 0 0 0
0 0 0 0 0 0 0 0 0 0 0 0 0 0 0 0 0 0 0 0 0 0 0 0 0 0 0 0 0 0 0 0 0 0 0 0 0 0 0 0 0 0 0 0
0 0 0 0 0 0 0 0 0 0 0 0 0 0 0 0 0 0 0 0 0 0 0 0 0 0 0 0 0 0 0 0 0 0 0 0 0 0 0 0 0 0 0 0
0 0 0 0 0 0 0 0 0 0 0 0 0 0 0 0 0 0 0 0 0 0 0 0 0 0 0 0 0 0 0 0 0 0 0 0 0 0 0 0 0 0 0 0
0 0 0 0 0 0 0 0 0 0 0 0 0 0 0 0 0 0 0 0 0 0 0 0 0 0 0 0 0 0 0 0 0 0 0 0 0 0 0 0 0 0 0 0
0 0 0 0 0 0 0 0 0 0 0 0 0 0 0 0 0 0 0 0 0 0 0 0 0 0 0 0 0 0 0 0 0 0 0 0 0 0 0 0 0 0 0 0
0 0 0 0 0 0 0 0 0 0 0 0 0 0 0 0 0 0 0 0 0 0 0 0 0 0 0 0 0 0 0 0 0 0 0 0 0 0 0 0 0 0 0 0
Wind_Speed
5 7 4 2 3 3 3 4 3 2 4 7 9 10 12 13 15 15 14 13 13 12 11 11 12 12 11 11 10 9 8 7 4 1 2 4 5 5 5 5 6 6 6 6
7 6 3 5 6 7 6 5 3 3 4 5 8 11 9 12 13 12 12 13 14 14 15 14 13 13 12 11 10 10 9 8 6 3 3 3 4 3 4 3 3 4 5 6
7 2 5 8 8 6 4 3 1 2 4 4 6 6 9 8 10 13 14 12 12 14 14 14 14 13 12 11 11 10 10 9 8 5 2 1 1 1 2 3 3 4 5 6
6 5 7 7 5 4 2 2 2 2 2 2 3 2 6 9 11 16 16 14 14 14 13 12 13 12 12 11 10 10 10 9 8 6 2 2 3 4 4 4 4 4 4 5
3 4 7 6 5 4 4 6 3 1 3 3 6 5 5 8 11 16 15 15 14 14 13 12 12 12 11 11 10 9 9 9 8 7 4 1 1 2 3 3 4 4 3 4
4 2 4 3 4 4 4 5 6 6 6 4 5 4 5 7 10 14 14 15 15 15 13 11 11 11 10 11 10 10 9 9 9 8 5 2 0 1 3 3 3 3 2 3
5 6 5 4 6 8 9 7 6 8 6 1 2 5 2 5 7 9 12 14 14 13 11 12 12 11 11 12 11 10 10 9 9 8 7 4 2 1 2 2 4 3 2 2
3 4 6 5 3 3 4 6 5 2 1 1 3 3 2 4 6 7 8 10 12 12 11 11 11 10 10 11 11 11 10 9 9 8 6 5 4 2 1 1 1 2 2 2
4 1 2 4 5 4 4 3 3 5 2 2 2 1 3 5 8 9 10 11 11 11 11 11 11 10 10 11 11 10 10 10 9 8 6 6 5 4 3 2 1 1 1 2
5 4 1 3 7 8 3 2 5 5 3 1 1 1 4 8 9 10 10 10 11 11 10 10 10 10 9 8 8 9 9 9 9 9 7 6 6 5 4 3 3 2 1 0
4 5 3 5 5 4 6 5 5 4 3 3 0 2 3 5 6 8 9 9 9 9 9 9 8 8 8 7 7 8 8 8 9 9 8 8 7 7 6 5 5 3 2 1
3 6 3 2 2 1 3 2 3 3 1 2 2 4 4 5 6 6 7 8 8 8 8 8 8 8 8 8 7 7 7 7 7 8 8 8 8 7 7 6 5 4 4 2
4 6 4 4 6 5 3 3 3 5 4 2 2 4 3 3 5 5 5 6 7 7 7 7 7 7 7 7 7 7 6 7 7 7 8 8 8 8 8 8 7 6 5 5
5 5 5 4 5 2 0 2 2 4 3 1 3 3 3 4 4 5 5 5 5 6 6 6 7 7 7 6 5 6 6 6 7 7 8 8 8 8 7 7 7 7 6 5
5 4 2 3 3 3 2 2 2 2 4 4 4 3 4 4 3 3 3 4 4 6 6 7 7 7 6 6 5 6 6 6 6 7 8 8 7 7 7 7 7 6 7 6
4 3 2 0 2 3 1 1 2 2 2 3 3 3 4 2 0 2 3 3 4 5 6 7 8 7 6 5 4 4 5 6 6 7 7 7 7 8 8 7 7 7 7 6
3 4 3 1 1 1 2 4 4 2 2 4 5 5 3 2 1 1 1 2 3 5 5 6 7 6 6 4 3 3 3 4 5 6 6 7 7 7 7 7 7 7 6 6
4 4 3 1 2 2 5 3 4 3 1 2 4 4 4 4 2 1 1 0 3 4 5 6 6 6 5 3 3 3 4 4 5 5 6 6 7 7 7 7 7 7 5 5
4 5 3 3 1 3 3 2 3 3 1 2 5 4 3 4 3 3 2 0 1 3 4 4 4 4 4 4 3 3 4 4 5 5 5 5 5 6 7 7 7 5 5 6
4 5 4 3 1 3 5 2 3 5 1 3 4 4 4 5 2 3 4 2 2 3 3 4 5 4 4 4 2 4 4 4 4 4 4 4 4 5 6 6 5 5 5 5
1 3 2 2 2 5 4 2 4 3 6 4 5 6 5 4 5 4 2 1 2 3 4 4 5 4 4 3 2 3 3 3 3 2 3 4 4 5 5 5 5 5 5 6
6 4 3 3 2 6 5 5 6 7 4 5 6 5 5 4 3 1 1 1 2 3 5 5 5 5 4 3 2 2 3 3 2 3 4 4 5 5 5 6 6 6 6 6
5 7 6 7 7 5 5 6 5 6 6 6 6 5 5 4 2 2 1 1 2 3 4 4 4 5 5 4 2 2 3 2 2 3 4 3 5 5 5 6 6 5 6 5
2 3 4 1 4 3 3 4 5 6 7 6 6 5 5 4 3 2 1 1 2 3 3 4 4 5 5 5 3 2 3 2 3 3 2 3 4 4 5 5 4 5 5 5
5 4 3 2 2 2 3 5 7 6 7 7 6 5 6 5 3 2 1 1 2 2 3 3 3 4 4 4 3 3 3 3 4 3 2 2 2 3 3 4 4 4 3 3
5 7 8 8 8 8 8 8 8 9 8 8 7 5 4 4 4 2 1 1 1 2 2 3 4 4 4 3 3 3 2 2 3 2 1 1 1 1 1 2 3 5 4 7
Wind_Direction
45 57 49 47 83 107 91 81 50 28 32 73 79 69 47 34 38 31 22 14 8 2 356 0 0 358 358 359 356 348 341 333 330 280 218 203 198 191 187 194 195 187 184 184
49 33 23 67 54 61 64 66 18 338 17 84 91 71 52 40 35 27 18 7 360 355 355 356 357 357 354 351 350 350 344 334 325 299 255 222 201 187 183 184 195 189 176 176
97 7 41 57 41 37 42 92 27 319 4 57 103 51 18 12 22 18 16 5 357 354 348 347 350 349 348 349 350 347 339 335 329 310 273 238 133 118 163 181 192 200 182 171
69 10 40 48 30 21 321 282 287 292 42 345 65 86 6 345 360 6 2 356 349 345 342 343 344 343 345 343 343 342 340 340 338 332 293 202 197 198 200 193 188 188 188 173
73 42 45 33 346 344 280 288 288 263 124 49 25 85 350 344 357 352 350 348 344 340 340 343 343 338 339 341 344 343 345 346 346 349 339 260 202 203 185 175 179 182 188 186
58 53 55 353 327 338 340 14 39 51 70 52 348 81 9 353 338 335 342 345 344 341 344 346 347 346 343 348 349 349 350 351 351 355 356 4 90 161 160 171 186 187 186 191
29 9 1 9 10 359 30 52 35 22 30 20 31 76 23 319 332 332 334 338 343 350 354 353 355 355 350 351 353 353 353 353 354 359 4 9 27 74 149 173 184 185 186 202
86 5 353 9 26 353 15 91 116 135 218 293 30 70 266 312 330 333 335 337 346 355 356 358 357 354 351 352 353 354 357 356 357 2 6 14 29 37 43 61 134 176 197 208
121 93 0 34 26 52 23 24 146 132 82 70 31 360 295 332 344 346 347 347 350 349 350 353 353 353 352 354 355 355 359 1 2 3 11 23 27 34 32 29 52 92 187 202
123 117 2 14 23 17 60 66 57 70 90 53 2 339 310 322 330 331 337 339 338 341 345 348 348 347 348 349 350 358 2 4 4 10 19 27 21 25 28 32 28 10 334 233
90 106 20 29 35 358 13 28 58 81 117 132 241 284 248 269 291 306 317 324 330 337 339 340 342 339 340 345 353 -0 0 5 8 11 15 20 17 20 26 28 17 2 346 5
59 102 70 14 330 23 61 54 103 112 45 111 145 265 265 253 274 287 302 315 325 329 331 334 336 338 341 347 352 356 356 1 4 8 14 18 17 20 24 22 15 17 19 14
82 97 83 351 338 356 21 11 82 116 103 108 147 267 281 279 289 293 299 312 322 327 332 333 333 334 337 342 349 351 355 357 2 10 17 18 16 18 20 19 19 20 25 27
102 90 141 177 217 207 82 24 65 99 112 156 208 233 278 289 294 307 315 315 317 326 334 338 337 335 336 342 352 355 358 0 8 16 22 19 12 11 13 19 21 22 26 36
93 105 155 192 185 161 158 147 116 119 163 171 206 207 244 250 261 295 318 327 340 341 344 342 338 338 343 351 1 9 9 7 12 19 22 16 12 16 17 20 21 26 31 38
89 127 133 249 199 165 148 194 160 153 150 157 160 224 242 228 244 339 337 346 349 342 342 342 341 341 345 353 2 10 12 10 17 22 19 14 17 22 21 19 21 30 35 39
84 112 108 265 225 83 275 230 190 184 188 173 192 219 205 174 175 235 323 354 345 336 340 343 338 335 342 354 10 10 3 11 23 22 17 17 19 20 17 21 27 30 33 41
113 101 113 106 90 248 256 246 157 151 191 181 169 184 183 177 179 227 190 37 344 335 337 336 336 339 345 3 20 11 16 23 25 24 19 17 20 20 16 21 24 23 30 40
113 123 105 107 152 276 289 232 158 146 288 209 165 175 161 138 67 353 313 306 319 324 325 321 326 330 348 3 9 28 24 21 25 22 20 17 21 22 22 23 17 19 32 37
66 87 103 112 150 245 246 217 142 105 284 248 155 151 145 124 94 276 286 307 335 337 329 335 339 351 359 348 8 36 18 16 15 12 18 19 25 29 26 21 18 21 33 38
34 49 107 167 226 262 244 158 106 152 229 193 147 142 136 152 191 229 264 327 338 333 334 346 352 350 336 330 15 27 6 354 348 20 31 26 25 34 30 27 25 28 34 38
170 164 194 163 209 261 205 146 175 207 173 145 140 144 140 155 170 155 115 19 344 342 343 351 354 343 336 341 13 6 339 328 15 50 48 37 30 34 38 36 30 30 33 41
181 184 183 184 212 236 187 187 188 150 145 151 150 151 137 130 122 103 90 1 333 335 338 346 352 344 342 341 354 350 319 343 73 70 58 49 47 41 38 40 34 30 31 39
261 151 132 210 259 202 174 151 147 150 148 154 149 141 129 128 125 108 102 346 332 329 331 342 355 355 342 336 338 335 334 28 94 90 70 65 65 50 38 37 37 41 34 34
221 160 146 226 233 151 205 181 162 149 139 139 138 138 140 137 134 133 153 316 326 329 328 345 353 340 328 332 338 343 7 73 91 90 78 77 78 72 50 43 36 37 32 31
201 173 173 211 202 179 204 192 162 150 155 154 148 150 153 151 157 147 178 292 313 322 332 346 347 341 333 338 335 340 5 97 110 101 92 102 114 108 84 60 37 32 38 39